User: anonymous   Login
Location: Unspecified
(0.0000°N, 0.0000°E)
Time: 14:36:00
(UTC+00:00)
Language:

NAVSTAR 65 (USA 213) - Orbit

View from above orbital plane
View from above orbital plane
View from above satellite
View from above satellite

Ground track
Ground track

The orbit data is extracted from the following two-line orbital elements,

1 36585U 10022A   15029.12037698 -.00000065  00000-0  00000+0 0  8669
2 36585 056.0252 015.0768 0039941 034.9108 193.5158 02.00557903 34221
Epoch (UTC): 29 January 2015 02:53:20
Eccentricity: 0.0039941
inclination: 56.0252°
perigee height: 20076 km
apogee height: 20288 km
right ascension of ascending node: 15.0768°
argument of perigee: 34.9108°
revolutions per day: 2.00557903
mean anomaly at epoch: 193.5158°
orbit number at epoch: 3422

The dashed part of the orbit path shows where the satellite is in the earth's shadow,  

DLR